Victoria, TX

11:51 AM CST on December 05, 2019 (GMT -0600)
Victoria Regional

Weather History for KVCT - October, 2019

Change the Weather History Date:

Wednesday, October 16, 2019

  Actual Average Record
Temperature  
Mean Temperature 70 °F 72 °F  
Max Temperature 78 °F 84 °F 96 °F (1933)
Min Temperature 62 °F 61 °F 45 °F (1974)
Degree Days  
Heating Degree Days 0 1  
Month to date heating degree days 0 1  
Since 1 July heating degree days 0 2  
Cooling Degree Days 5 8  
Month to date cooling degree days 225 150  
Year to date cooling degree days 3490 2948  
Growing Degree Days 20 (Base 50)    
Moisture  
Dew Point 66 °F    
Average Humidity 86    
Maximum Humidity 94    
Minimum Humidity 63    
Precipitation  
Precipitation 1.27 in 0.17 in 4.30 in (1960)
Month to date precipitation 1.68 2.38  
Year to date precipitation 21.04 33.41  
Snow  
Snow 0.00 in 0.00 in 0.00 in (2002)
Month to date snowfall 0.0 0.0  
Since 1 July snowfall 0.0 0.0  
Since 1 September snowfall 0.0 0.0  
Snow Depth 0.00 in    
Sea Level Pressure  
Sea Level Pressure 29.99 in    
Wind  
Wind Speed 8 mph ()    
Max Wind Speed 25 mph    
Max Gust Speed 31 mph    
Visibility 6.8 miles    
Events Rain , Thunderstorm    
T = Trace of Precipitation, MM = Missing Value Source: Averaged Metar Reports

Daily Weather History Graph

Daily Weather History Graph

Search for Another Location

Airport or City:

Astronomy

Oct. 16, 2019 Rise Set
Actual Time 7:29 AM CDT 6:56 PM CDT
Civil Twilight 7:05 AM CDT 7:20 PM CDT
Nautical Twilight 6:37 AM CDT 7:48 PM CDT
Astronomical Twilight 6:10 AM CDT 8:15 PM CDT
Moon 9:01 PM CDT (10/16) 9:52 AM CDT (10/16)
Length of Visible Light 12h 15m
Length of Day
11h 27m
Waning Gibbous, 92% of the Moon is Illuminated
Oct 16
Waning Gibbous
Oct 21
Last Quarter
Oct 27
New
Nov 4
First Quarter
Nov 12
Full

Hourly Weather History & Observations

Time (CDT) Temp. Dew Point Humidity Pressure Visibility Wind Dir Wind Speed Gust Speed Precip Events Conditions
12:51 AM 75.9 °F 73.0 °F 91% 29.91 in 5.0 mi NNW 8.1 mph - N/A   Clear
1:10 AM 77.0 °F 75.0 °F 94% 29.90 in 7.0 mi Calm Calm - N/A   Mostly Cloudy
1:35 AM 78.1 °F 75.0 °F 90% 29.90 in 7.0 mi Calm Calm - N/A   Overcast
1:51 AM 78.1 °F 75.0 °F 90% 29.89 in 7.0 mi Calm Calm - N/A   Overcast
2:24 AM 77.0 °F 73.9 °F 90% 29.90 in 6.0 mi NW 3.5 mph - N/A   Overcast
2:43 AM 75.9 °F 73.9 °F 94% 29.89 in 6.0 mi Calm Calm - N/A   Scattered Clouds
2:51 AM 75.9 °F 73.9 °F 94% 29.88 in 6.0 mi Calm Calm - N/A   Partly Cloudy
3:27 AM 75.9 °F 73.0 °F 91% 29.89 in 4.0 mi North 5.8 mph - N/A   Mostly Cloudy
3:43 AM 75.9 °F 73.9 °F 94% 29.89 in 5.0 mi North 4.6 mph - N/A   Overcast
3:51 AM 75.9 °F 73.9 °F 94% 29.88 in 5.0 mi NW 3.5 mph - N/A   Overcast
4:03 AM 75.9 °F 73.9 °F 94% 29.89 in 5.0 mi NNW 5.8 mph - N/A   Overcast
4:19 AM 77.0 °F 73.9 °F 90% 29.90 in 5.0 mi NNW 5.8 mph - N/A   Overcast
4:51 AM 77.0 °F 75.0 °F 94% 29.91 in 6.0 mi North 6.9 mph - N/A   Overcast
5:51 AM 77.0 °F 75.0 °F 94% 29.91 in 7.0 mi NW 8.1 mph - N/A   Overcast
6:10 AM 77.0 °F 75.0 °F 94% 29.92 in 2.5 mi NNW 5.8 mph - 0.08 in Rain Rain
6:17 AM 75.9 °F 73.9 °F 94% 29.93 in 2.5 mi NW 20.7 mph - 0.09 in Rain , Thunderstorm Thunderstorms and Rain
6:51 AM 73.0 °F 71.1 °F 93% 29.95 in 6.0 mi NNW 20.7 mph 27.6 mph 0.30 in Rain , Thunderstorm Light Thunderstorms and Rain
7:03 AM 72.0 °F 70.0 °F 93% 29.97 in 3.0 mi NW 25.3 mph 29.9 mph 0.02 in Rain , Thunderstorm Rain
7:08 AM 72.0 °F 70.0 °F 93% 29.97 in 2.5 mi NW 20.7 mph 29.9 mph 0.04 in Rain , Thunderstorm Heavy Rain
7:17 AM 72.0 °F 70.0 °F 93% 29.98 in 1.8 mi NNW 18.4 mph - 0.15 in Rain , Thunderstorm Heavy Rain
7:26 AM 72.0 °F 70.0 °F 93% 29.97 in 1.2 mi North 17.3 mph - 0.33 in Rain , Thunderstorm Heavy Thunderstorms and Rain
7:45 AM 71.6 °F 69.8 °F 94% 29.98 in 2.0 mi North 13.8 mph - 0.70 in Rain , Thunderstorm Heavy Thunderstorms and Rain
7:49 AM 71.6 °F 69.8 °F 94% 29.98 in 3.0 mi North 12.7 mph - 0.72 in Rain , Thunderstorm Rain
7:51 AM 72.0 °F 70.0 °F 93% 29.98 in 4.0 mi North 12.7 mph - 0.72 in Rain , Thunderstorm Rain
8:27 AM 72.0 °F 70.0 °F 93% 29.98 in 4.0 mi NNE 11.5 mph - 0.07 in Rain Rain
8:37 AM 72.0 °F 70.0 °F 93% 29.97 in 5.0 mi NNE 15.0 mph - 0.10 in Rain , Thunderstorm Rain
8:51 AM 72.0 °F 70.0 °F 93% 29.99 in 2.5 mi North 9.2 mph - 0.14 in Rain Heavy Rain
8:57 AM 72.0 °F 70.0 °F 93% 29.99 in 3.0 mi North 10.4 mph - 0.03 in Rain Rain
9:51 AM 72.0 °F 70.0 °F 93% 30.01 in 10.0 mi North 11.5 mph - 0.08 in   Mostly Cloudy
10:29 AM 68.0 °F 66.0 °F 93% 30.04 in 10.0 mi NNW 13.8 mph - N/A   Overcast
10:51 AM 66.0 °F 63.0 °F 90% 30.04 in 10.0 mi NNW 13.8 mph - N/A   Overcast
11:17 AM 64.4 °F 60.8 °F 88% 30.05 in 8.0 mi NNW 12.7 mph - N/A Rain Light Rain
11:51 AM 64.0 °F 60.1 °F 87% 30.06 in 10.0 mi NNW 12.7 mph - 0.02 in   Overcast
12:07 PM 63.0 °F 59.0 °F 87% 30.07 in 10.0 mi North 16.1 mph 23.0 mph 0.00 in Rain Light Rain
12:51 PM 63.0 °F 57.0 °F 81% 30.08 in 10.0 mi NNW 11.5 mph - 0.00 in   Overcast
1:26 PM 63.0 °F 57.0 °F 81% 30.07 in 10.0 mi North 11.5 mph - 0.00 in Rain Light Rain
1:51 PM 63.0 °F 57.0 °F 81% 30.06 in 10.0 mi NNW 12.7 mph - 0.00 in Rain Light Rain
2:02 PM 63.0 °F 57.0 °F 81% 30.06 in 10.0 mi NNW 13.8 mph - 0.00 in Rain Light Rain
2:51 PM 64.0 °F 55.9 °F 75% 30.07 in 10.0 mi NNW 10.4 mph - 0.01 in   Overcast
3:51 PM 64.0 °F 55.9 °F 75% 30.03 in 10.0 mi NNW 12.7 mph - N/A   Overcast
4:51 PM 66.0 °F 55.9 °F 70% 30.01 in 10.0 mi North 13.8 mph - N/A   Mostly Cloudy
5:51 PM 66.9 °F 55.0 °F 66% 29.99 in 10.0 mi North 11.5 mph - N/A   Overcast
6:51 PM 66.0 °F 55.9 °F 70% 30.01 in 10.0 mi NNE 12.7 mph 21.9 mph N/A   Overcast
7:51 PM 64.9 °F 55.9 °F 73% 30.04 in 10.0 mi North 6.9 mph - N/A   Overcast
8:51 PM 64.9 °F 55.0 °F 70% 30.06 in 10.0 mi North 5.8 mph - N/A   Overcast
9:51 PM 64.9 °F 54.0 °F 68% 30.08 in 10.0 mi North 5.8 mph - N/A   Overcast
10:51 PM 64.0 °F 53.1 °F 67% 30.09 in 10.0 mi North 8.1 mph - N/A   Overcast
11:20 PM 64.9 °F 52.0 °F 63% 30.09 in 10.0 mi North 9.2 mph - N/A   Overcast
11:35 PM 64.9 °F 52.0 °F 63% 30.09 in 10.0 mi NNE 8.1 mph - N/A   Overcast
11:51 PM 64.9 °F 52.0 °F 63% 30.09 in 10.0 mi North 4.6 mph - N/A   Overcast